[[{"header":{"parameterUnit":"m.s-1","parameterCategory":1,"la1":30.2991,"la2":30.254,"lo1":-89.0895,"lo2":-89.0444,"dy":0.0017,"dx":0.0017,"nx":28,"ny":28,"refTime":"2026-02-18T03:00:00:Z","depth":0,"parameterNumber":2,"parameterNumberName":"U-component_of_WINDS"},"data":[0,0,0,0,0,0,0,0,0,0,0,0,0,0,0,0,0,0,0,0,0,0,0,0,0,0,0,0,0,0,0,0,0,0,0,0,0,0,0,0,0,0,0,0,0,0,0,0,0,0,0,0,0,0,0,0,0,0,1.7807,1.7808,0,1.7867,1.7868,1.7869,1.7897,1.7897,1.7897,1.7897,1.7956,1.7958,1.796,0,0,0,0,0,0,0,0,0,0,0,0,0,1.7716,1.7717,1.7807,1.7808,1.7809,1.7867,1.7868,1.7869,1.7897,1.7897,1.7897,1.7897,1.7956,1.7958,1.796,0,0,0,0,0,0,0,0,0,0,0,0,0,1.7763,1.7718,1.7807,1.783,1.7833,1.7867,1.7868,1.7869,1.7897,1.7897,1.7897,1.7897,1.7955,1.7958,1.796,1.7976,0,0,1.7967,1.7968,0,0,0,0,0,0,0,0,1.7761,1.7767,1.7826,1.7829,1.7832,1.7875,1.7858,1.7905,1.7897,1.7873,1.7897,1.7897,1.7929,1.7934,1.7945,1.7978,1.7981,1.7968,1.7969,1.797,1.7971,0,0,0,0,0,0,0,1.7757,1.7764,1.7831,1.7827,1.783,1.7837,1.7843,1.7867,1.79,1.7875,1.7877,1.7884,1.7931,1.7943,1.7947,1.7982,1.7967,1.797,1.7971,1.7972,1.8031,1.8031,0,0,0,0,0,0,1.7751,1.7761,1.7829,1.7833,1.7795,1.7838,1.7846,1.7861,1.79,1.7906,1.7884,1.7885,1.7938,1.7944,1.7949,1.797,1.797,1.7972,1.7974,1.8031,1.8031,1.8031,0,0,0,0,0,0,1.7749,1.7756,1.7827,1.7798,1.7807,1.784,1.7857,1.7862,1.7874,1.7907,1.7913,1.789,1.7939,1.7945,1.7969,1.7972,1.7973,1.7976,1.8031,1.8031,1.8031,1.8012,0,0,0,0,0,0,1.7746,1.7756,1.7762,1.7798,1.7809,1.7846,1.7857,1.7863,1.7878,1.788,1.7914,1.792,1.7939,1.7965,1.7971,1.7976,1.7977,1.8031,1.8031,1.8031,1.8012,1.8012,1.8011,0,0,0,0,0,1.7742,1.7754,1.7762,1.777,1.7818,1.7846,1.7853,1.7875,1.7879,1.7885,1.7906,1.7919,1.7971,1.7967,1.7974,1.798,1.8031,1.8031,1.8031,1.8013,1.8012,1.8011,0,0,0,0,0,0,1.7717,1.7759,1.7769,1.7792,1.7816,1.7851,1.786,1.7873,1.7896,1.7897,1.7923,1.793,1.7952,1.7968,1.7963,1.7997,1.8002,1.8004,1.7986,1.7985,1.7984,1.7979,1.7979,0,0,0,0,0,1.7714,1.7734,1.777,1.7787,1.7798,1.7827,1.784,1.7856,1.7881,1.7891,1.7914,1.7937,1.7959,1.7973,1.7994,1.8015,1.8023,1.8022,1.8021,1.802,1.8021,1.8034,1.8034,1.8032,1.8032,1.8032,0,0,1.7708,1.7734,1.7745,1.7782,1.7802,1.7823,1.7835,1.7856,1.7871,1.7894,1.7918,1.7935,1.7963,1.7985,1.7996,1.8,1.8024,1.8021,1.802,1.8021,1.8034,1.8034,1.8034,1.8033,1.8032,1.8032,0,0,1.7708,1.7729,1.7746,1.7766,1.7797,1.7816,1.782,1.7854,1.7867,1.7891,1.7909,1.7927,1.7964,1.7983,1.7997,1.8005,1.8017,1.8011,1.8006,1.8018,1.8018,1.8018,1.8021,1.8022,1.8012,1.8012,1.8012,0,1.7696,1.7728,1.7753,1.7773,1.7789,1.7811,1.7828,1.7846,1.7882,1.7892,1.7896,1.7943,1.7963,1.799,1.7992,1.8003,1.8008,1.8007,1.8016,1.8017,1.8017,1.802,1.8021,1.8011,1.8011,1.8011,1.8011,0,1.7713,1.7734,1.7744,1.7779,1.7796,1.7815,1.7842,1.7856,1.787,1.7888,1.7913,1.7938,1.7966,1.7973,1.7987,1.8002,1.8004,1.8011,1.8017,1.8016,1.8019,1.8021,1.801,1.801,1.801,1.8011,0,0,1.7698,1.7747,1.775,1.7766,1.7802,1.7819,1.7838,1.7865,1.7877,1.7901,1.7918,1.7948,1.7956,1.7972,1.7988,1.7998,1.8003,1.8005,1.8006,1.8004,1.8022,1.8016,1.8017,1.8011,1.8012,1.8012,1.802,0,1.7703,1.7739,1.7762,1.7789,1.7809,1.7831,1.7848,1.7871,1.7889,1.7908,1.7928,1.795,1.7958,1.7968,1.7979,1.8,1.8007,1.8,1.8027,1.8027,1.8019,1.8019,1.8013,1.8019,1.8021,1.8021,1.8021,0,1.7713,1.7737,1.7767,1.78,1.781,1.7824,1.7852,1.787,1.7897,1.7909,1.7928,1.7944,1.7965,1.7969,1.7998,1.7992,1.8005,1.8017,1.8017,1.8021,1.8024,1.8022,1.8021,1.8022,1.8024,1.8023,1.8023,0,1.77,1.7739,1.7762,1.7775,1.7815,1.7825,1.7842,1.7869,1.7884,1.7908,1.7918,1.7943,1.7957,1.7976,1.7999,1.7999,1.8025,1.8031,1.8036,1.8035,1.804,1.804,1.8042,1.8048,1.8048,1.8048,1.8048,0,1.7703,1.772,1.7757,1.7771,1.7791,1.7817,1.7835,1.7854,1.7877,1.7895,1.7915,1.7931,1.796,1.7979,1.7997,1.8018,1.8024,1.8034,1.8039,1.8033,1.8031,1.8041,1.8041,1.8048,1.8048,1.8048,1.8048,0,1.7691,1.7716,1.7743,1.7779,1.7788,1.7801,1.7831,1.7846,1.7865,1.7887,1.7894,1.7923,1.7947,1.7972,1.8004,1.8016,1.8036,1.8042,1.8028,1.803,1.8034,1.8033,1.8042,1.8045,1.8049,1.8049,1.8049,0,1.7691,1.7705,1.7743,1.7756,1.7773,1.7795,1.7811,1.7837,1.7852,1.7884,1.7894,1.792,1.7942,1.7979,1.8003,1.8028,1.8035,1.8036,1.8038,1.8032,1.8035,1.8034,1.8035,1.8035,1.8035,1.8035,1.8035,0,1.7689,1.7701,1.7724,1.7751,1.777,1.7792,1.7816,1.7825,1.7856,1.7872,1.7898,1.7914,1.7948,1.7973,1.8,1.8017,1.8031,1.8034,1.8036,1.803,1.8021,1.8026,1.8025,1.8033,1.8034,1.8034,1.8034,1.8034,1.7684,1.7697,1.7726,1.7751,1.7771,1.7792,1.7808,1.7829,1.7851,1.7881,1.7894,1.7919,1.7946,1.7985,1.8001,1.8021,1.8025,1.8028,1.8029,1.803,1.8028,1.8018,1.8026,1.8026,1.8026,1.8026,1.8026,0,1.7683,1.7703,1.7725,1.7757,1.7777,1.7789,1.7815,1.783,1.7853,1.7877,1.7898,1.7927,1.7951,1.7978,1.8004,1.8014,1.8021,1.802,1.802,1.8024,1.8023,1.8019,1.8014,1.8014,1.8014,1.8014,1.8014,1.8014,1.7685,1.7708,1.7724,1.7758,1.7777,1.7803,1.7817,1.7837,1.7856,1.7888,1.7909,1.7926,1.7951,1.7979,1.8002,1.8009,1.8017,1.8015,1.8023,1.8023,1.8024,1.8024,1.802,1.8016,1.8016,1.8022,1.8022,1.8022]},{"header":{"parameterUnit":"m.s-1","parameterCategory":1,"la1":30.2991,"la2":30.254,"lo1":-89.0895,"lo2":-89.0444,"dy":0.0017,"dx":0.0017,"nx":28,"ny":28,"refTime":"2026-02-18T03:00:00:Z","depth":0,"parameterNumber":3,"parameterNumberName":"V-component_of_WINDS"},"data":[0,0,0,0,0,0,0,0,0,0,0,0,0,0,0,0,0,0,0,0,0,0,0,0,0,0,0,0,0,0,0,0,0,0,0,0,0,0,0,0,0,0,0,0,0,0,0,0,0,0,0,0,0,0,0,0,0,0,3.6954,3.6954,0,3.702,3.702,3.7021,3.7032,3.7032,3.7031,3.7031,3.7095,3.7097,3.71,0,0,0,0,0,0,0,0,0,0,0,0,0,3.6835,3.6838,3.6954,3.6954,3.6955,3.7019,3.702,3.7021,3.7032,3.7032,3.7031,3.703,3.7094,3.7097,3.71,0,0,0,0,0,0,0,0,0,0,0,0,0,3.6892,3.6838,3.6954,3.6969,3.6971,3.7019,3.702,3.7022,3.7032,3.7032,3.7031,3.703,3.7094,3.7097,3.71,3.7138,0,0,3.711,3.7112,0,0,0,0,0,0,0,0,3.6889,3.6897,3.6966,3.6968,3.697,3.7017,3.7002,3.706,3.7033,3.7009,3.7031,3.703,3.707,3.7075,3.7089,3.7141,3.7143,3.7111,3.7113,3.7114,3.7115,0,0,0,0,0,0,0,3.6885,3.6894,3.698,3.6967,3.6969,3.6971,3.6979,3.7013,3.7043,3.7011,3.7012,3.702,3.7071,3.7086,3.7091,3.7144,3.7111,3.7114,3.7116,3.7117,3.7231,3.7232,0,0,0,0,0,0,3.6879,3.6891,3.6978,3.6982,3.6927,3.6974,3.6982,3.7003,3.7043,3.7048,3.702,3.702,3.708,3.7087,3.7093,3.7141,3.7114,3.7117,3.7119,3.723,3.7231,3.7232,0,0,0,0,0,0,3.6876,3.6887,3.6975,3.6937,3.6948,3.6977,3.7,3.7004,3.702,3.705,3.7055,3.703,3.708,3.7088,3.7127,3.7143,3.7119,3.7122,3.7229,3.723,3.7232,3.7235,0,0,0,0,0,0,3.6873,3.6886,3.6901,3.6937,3.695,3.7008,3.7001,3.7006,3.7026,3.7026,3.7061,3.7066,3.708,3.7122,3.713,3.7147,3.7124,3.7228,3.723,3.7231,3.7234,3.7237,3.7239,0,0,0,0,0,3.6869,3.6898,3.6901,3.6912,3.6969,3.7009,3.7017,3.7034,3.7027,3.7042,3.7062,3.7065,3.714,3.7126,3.7135,3.7153,3.7227,3.7229,3.7231,3.7233,3.7236,3.7239,0,0,0,0,0,0,3.6862,3.6903,3.6907,3.6949,3.6976,3.7011,3.7031,3.7036,3.7065,3.7064,3.7082,3.709,3.7128,3.7144,3.7128,3.7192,3.7182,3.7187,3.718,3.7184,3.7187,3.7182,3.7127,0,0,0,0,0,3.6865,3.6895,3.6929,3.6963,3.6976,3.7001,3.7019,3.703,3.7058,3.7069,3.7091,3.7118,3.7147,3.7166,3.7195,3.7236,3.7244,3.7253,3.7256,3.7258,3.7262,3.7285,3.729,3.724,3.724,3.724,0,0,3.6872,3.6899,3.6916,3.6962,3.6984,3.7014,3.701,3.7042,3.7065,3.7073,3.7112,3.7129,3.716,3.72,3.7219,3.7215,3.7277,3.7261,3.7262,3.7265,3.7288,3.7293,3.7297,3.7241,3.7241,3.7241,0,0,3.6901,3.6924,3.6955,3.6978,3.7011,3.7028,3.7035,3.707,3.7083,3.7122,3.713,3.7156,3.7206,3.7228,3.7246,3.7284,3.7288,3.7293,3.7307,3.733,3.7334,3.7338,3.7352,3.7357,3.7296,3.7296,3.7296,0,3.6906,3.6952,3.697,3.7003,3.7023,3.7033,3.7065,3.7085,3.7126,3.714,3.7135,3.7199,3.722,3.7267,3.7276,3.729,3.7299,3.7289,3.7332,3.7336,3.734,3.7354,3.7359,3.7297,3.7297,3.7297,3.7296,0,3.6957,3.6989,3.701,3.7051,3.7074,3.7105,3.7128,3.7148,3.7157,3.7174,3.7214,3.724,3.7275,3.7286,3.7294,3.7334,3.7331,3.7328,3.7319,3.7345,3.7358,3.7364,3.7297,3.7297,3.7297,3.7297,0,0,3.6983,3.7035,3.7042,3.7062,3.71,3.7125,3.7157,3.7192,3.721,3.7238,3.7265,3.7308,3.7307,3.7327,3.7338,3.7358,3.7388,3.7354,3.7355,3.736,3.7434,3.7436,3.7442,3.7391,3.7392,3.7393,3.7432,0,3.7018,3.7077,3.7094,3.7144,3.7174,3.7185,3.7213,3.7239,3.7256,3.7283,3.7301,3.7332,3.7328,3.734,3.736,3.738,3.7403,3.7377,3.7417,3.7418,3.741,3.7449,3.7452,3.7488,3.7437,3.7438,3.7439,0,3.7066,3.7096,3.7149,3.7185,3.7199,3.7224,3.7258,3.7284,3.7314,3.7325,3.7348,3.7357,3.7391,3.7379,3.7426,3.7408,3.7425,3.7437,3.7439,3.7444,3.7431,3.7457,3.75,3.7505,3.7447,3.7447,3.7446,0,3.7081,3.7135,3.7175,3.7191,3.7233,3.7251,3.7269,3.7298,3.7319,3.7348,3.7362,3.7394,3.7412,3.7437,3.7454,3.7444,3.75,3.7489,3.751,3.751,3.7522,3.7521,3.7569,3.7531,3.7531,3.7531,3.7531,0,3.7119,3.7151,3.7183,3.7207,3.7243,3.7263,3.7298,3.7316,3.7343,3.737,3.738,3.7406,3.7427,3.7455,3.7469,3.7506,3.7514,3.7523,3.7527,3.7523,3.7522,3.7535,3.7534,3.7532,3.7532,3.7532,3.7531,0,3.7143,3.7165,3.7209,3.7246,3.7256,3.7281,3.7312,3.7336,3.7353,3.7388,3.7397,3.7424,3.7458,3.7478,3.752,3.7529,3.7571,3.7573,3.7561,3.7563,3.7583,3.7581,3.7642,3.7652,3.7606,3.7606,3.7607,0,3.7166,3.7191,3.7231,3.7251,3.727,3.7302,3.7323,3.7343,3.7365,3.7402,3.7421,3.7456,3.7485,3.7538,3.7561,3.7593,3.7597,3.7616,3.7601,3.7597,3.7598,3.7597,3.76,3.7618,3.7619,3.7619,3.7619,0,3.7204,3.7214,3.7246,3.7281,3.7307,3.7335,3.7363,3.7379,3.7403,3.7427,3.7463,3.7485,3.7529,3.7564,3.7599,3.7616,3.7622,3.7624,3.763,3.7627,3.762,3.7626,3.7569,3.7622,3.7622,3.7622,3.7622,3.7621,3.7229,3.7253,3.7286,3.732,3.7344,3.737,3.7395,3.7416,3.7446,3.7485,3.7494,3.7531,3.7561,3.7609,3.7627,3.7657,3.7653,3.7663,3.7665,3.7668,3.7669,3.7615,3.7663,3.7663,3.7663,3.7662,3.7662,0,3.727,3.7291,3.7323,3.7363,3.7391,3.7394,3.7426,3.7448,3.7482,3.751,3.7539,3.758,3.7613,3.7639,3.7673,3.7692,3.7696,3.77,3.77,3.7704,3.7669,3.7661,3.7697,3.7697,3.7697,3.7697,3.7697,3.7697,3.7294,3.7335,3.7349,3.7401,3.7422,3.7461,3.7478,3.7503,3.7525,3.7571,3.76,3.7617,3.7644,3.7681,3.7712,3.7718,3.7731,3.7736,3.7743,3.771,3.7706,3.7703,3.7695,3.7738,3.7738,3.7775,3.7776,3.7776]}]]